Hourly Data Report for October 03, 2017

All times are specified in Local Standard Time (LST). Add 1 hour to adjust for Daylight Saving Time where and when it is observed.

NORTH BAY A
ONTARIO

46°21'50.000" N
79°25'27.000" W
370.30 m
6085680
71731
YYB

Download Data

Hourly Data (October 2017)
Hourly Data Report for October 3, 2017
Temp Definition
°C
Dew Point Temp Definition
°C
Rel Hum Definition
%
Wind Dir Definition
10's deg

Wind Spd Definition
km/h
Visibility Definition
km
Stn Press Definition
kPa
Hmdx Definition


Wind Chill Definition


Weather Definition


TIME
00:00 Legend Double Dagger 10.8 5.6 70 16 13 16.1 98.44     LegendNANA
01:00 Legend Double Dagger 10.5 5.5 71 17 13 16.1 98.49     LegendNANA
02:00 Legend Double Dagger 9.7 4.5 70 19 11 16.1 98.48     LegendNANA
03:00 Legend Double Dagger 9.5 3.1 64 16 13 16.1 98.47     LegendNANA
04:00 Legend Double Dagger 9.7 3.8 67 16 11 16.1 98.40     LegendNANA
05:00 Legend Double Dagger 9.8 4.5 69 15 13 16.1 98.45     LegendNANA
06:00 Legend Double Dagger 8.2 4.8 79 13 11 16.1 98.50     LegendNANA
07:00 Legend Double Dagger 9.9 5.7 75 14 15 16.1 98.50     LegendNANA
08:00 Legend Double Dagger 12.4 6.7 68 14 13 16.1 98.47     LegendNANA
09:00 Legend Double Dagger 14.1 7.3 64 15 13 16.1 98.45     LegendNANA
10:00 Legend Double Dagger 16.4 8.0 57 21 9 16.1 98.42     LegendNANA
11:00 Legend Double Dagger 18.7 9.0 53 21 13 16.1 98.41     LegendNANA
12:00 Legend Double Dagger 20.2 9.5 50 20 17 16.1 98.34     LegendNANA
13:00 Legend Double Dagger 22.0 9.5 45 21 21 16.1 98.23     LegendNANA
14:00 Legend Double Dagger 23.0 10.6 45 22 22 16.1 98.19 25   LegendNANA
15:00 Legend Double Dagger 23.0 10.6 45 21 28 16.1 98.15 25   LegendNANA
16:00 Legend Double Dagger 22.4 10.1 45 22 24 16.1 98.09     LegendNANA
17:00 Legend Double Dagger 21.2 11.1 52 21 18 16.1 98.06     LegendNANA
18:00 Legend Double Dagger 20.6 11.2 54 20 21 16.1 98.03     LegendNANA
19:00 Legend Double Dagger 20.1 10.7 54 19 18 16.1 98.00     LegendNANA
20:00 Legend Double Dagger 19.4 11.0 58 22 17 16.1 98.03     LegendNANA
21:00 Legend Double Dagger 19.1 11.8 62 20 15 16.1 97.98     LegendNANA
22:00 Legend Double Dagger 18.9 11.8 63 18 15 16.1 97.94     LegendNANA
23:00 Legend Double Dagger 18.7 12.2 66 20 15 16.1 97.89     Rain

Notes on Data Quality.

Legend

  • E = Estimated
  • M = Missing
  • NA = Not Available
  • ‡ = Partner data that is not subject to review by the National Climate Archives
Date modified: